Weather Roundup
Issued by NWS Chicago, IL

Home | Current Version | Previous Version | Text Only | Print | Product List | Glossary On
Versions: 1 2 3 4 5 6 7 8 9 10 11 12 13 14 15 16 17 18 19 20 21 22 23 24 25 26 27 28 29 30 31 32 33 34 35 36 37 38 39 40 41 42 43 44 45 46 47 48 49 50
000
NZUS59 KLOT 241809
HRRLOT

CHICAGO AREA WEATHER ROUNDUP
NATIONAL WEATHER SERVICE CHICAGO/ROMEOVILLE IL
100 PM CDT SAT JUN 24 2017

NOTE: "FAIR" INDICATES FEW OR NO CLOUDS BELOW 12,000 FEET WITH NO
SIGNIFICANT WEATHER AND/OR OBSTRUCTIONS TO VISIBILITY.

* THESE STATIONS ARE NOT UNDER NWS QUALITY CONTROL. THEY ALSO MAY NOT
  REPORT WEATHER SUCH AS PRECIPITATION OR FOG.

ILZ005-006-012>014-019>023-241900-
NORTHEAST ILLINOIS

CITY           SKY/WX    TMP DP  RH WIND       PRES   REMARKS
OHARE          PTSUNNY   73  49  42 W12G22    29.99R
6HR MIN TEMP:  63; 6HR MAX TEMP:  73;

MIDWAY         PTSUNNY   73  49  42 W20G26    29.99S
6HR MIN TEMP:  65; 6HR MAX TEMP:  73;

AURORA         MOSUNNY   71  50  47 W20G26    30.03R
6HR MIN TEMP:  61; 6HR MAX TEMP:  72;

LANSING*       MOSUNNY   74  48  40 W20G26    30.00S
JOLIET*        MOSUNNY   74  50  42 W12G20    30.02S
WAUKEGAN       PTSUNNY   69  48  47 W9G17     29.98R
6HR MIN TEMP:  63; 6HR MAX TEMP:  71;

DUPAGE AIRPORT PTSUNNY   69  50  50 W15       30.01R
6HR MIN TEMP:  62; 6HR MAX TEMP:  71;

WHEELING       MOSUNNY   73  49  42 W14G22    30.00R
6HR MIN TEMP:  63; 6HR MAX TEMP:  73;

MORRIS*        MOSUNNY   73  49  43 W21G28    30.01F
LEWIS AIRPORT* MOSUNNY   73  47  39 W15G25    30.01F
NORTHERLY ISL    N/A     71  47  42 W14         N/A
$$

WIZ051-052-058>065-066-070>072-241900-
SOUTHEAST WISCONSIN

CITY           SKY/WX    TMP DP  RH WIND       PRES   REMARKS
MILWAUKEE      MOSUNNY   70  45  40 W12       29.97R
6HR MIN TEMP:  63; 6HR MAX TEMP:  72;

KENOSHA*       PTSUNNY   70  50  49 W16G25    29.98R
RACINE*        MOSUNNY   71  45  39 W13G25    29.99R
WAUKESHA       PTSUNNY   64  48  55 W14G21    29.99R
WEST BEND      MOSUNNY   66  43  42 W17G25    29.96S
$$

INZ001>003-010>013-019-020-241900-
NORTHWEST INDIANA

CITY           SKY/WX    TMP DP  RH WIND       PRES   REMARKS
GARY*          MOSUNNY   75  43  31 W14G30    29.99S
MICHIGAN CITY* NOT AVBL
RENSSELAER*    NOT AVBL
VALPARAISO     MOSUNNY   75  50  41 W18G25    29.99S
$$

LMZ740>746-241900-
SOUTHERN LAKE MICHIGAN

STATION/POSITION TIME  SKY/WX   TEMP WIND        PRES    VSBY
                                AIR  DIR/SP/G
                 (UTC)          (F)  (DEG/KT/KT) (MB)    (MI)
HARRISON CRIB    1730            70  280/ 15/ 17   N/A
BURNHAM HARBOR   1800            72                N/A
CALUMET HARBOR   1742            72  250/  7/ 14 1014.9R
BURNS HARBOR     1740            69  280/ 11/ 13 1015.6S
MICHIGAN CITY    1740            67  260/ 11/ 12   N/A
$$

ABBREVIATIONS USED IN REMARKS
   TC - TEMPERATURE IN CELSIUS
  WCI - WIND CHILL INDEX
   HX - HEAT INDEX
  VSB - VISIBILITY
$$




USA.gov is the U.S. government's official web portal to all federal, state and local government web resources and services.